Tracking 29781 objects as of 15-Oct-2024
HD Live streaming from Space Station
objects crossing your sky now

DELTA 1 DEB

Track DELTA 1 DEB now!
10-day predictions


NORAD ID: 21386
Int'l Code: 1975-052DG
Perigee: 1,022.5 km
Apogee: 1,298.4 km
Inclination: 99.6 °
Period: 108.4 minutes
Semi major axis: 7531 km
RCS: 0.014 m2 (small)
Launch date: June 12, 1975
Source: United States (US)
Launch site: AIR FORCE WESTERN TEST RANGE (AFWTR)

Note: This is SATELLITE DEBRIS
Your satellite tracking list
Your tracking list is empty




NASA's NSSDC Master Catalog

Two Line Element Set (TLE):
1 21386U 75052DG  24288.18308918  .00001701  00000-0  34935-2 0  9996
2 21386  99.6000   7.4725 0183153 243.8859 175.2551 13.28260283611684
Source of the keplerian elements: AFSPC